Welcome to the New NWS' Forecast!
Most changes are behind the scenes, but click here for differences you might notice.

Regional Weather Roundup (RWR)

Issued by National Weather Service (NWS)

                            
000
ASUS46 KSEW 151910
RWRWA 

WASHINGTON REGIONAL WEATHER ROUNDUP
NATIONAL WEATHER SERVICE SEATTLE WA
1100 AM PST THU NOV 15 2018

NOTE:"FAIR" INDICATES FEW OR NO CLOUDS BELOW 12,000 FEET WITH NO 
SIGNIFICANT WEATHER AND/OR OBSTRUCTIONS TO VISIBILITY.

WAZ507-509-555>559-152000-
SEATTLE, TACOMA, EVERETT, AND VICINITY
  
CITY           SKY/WX    TMP DP  RH WIND       PRES   REMARKS
EVERETT        CLOUDY    51  47  86 SE10      30.32F                  
BOEING FIELD   PTSUNNY   54  46  74 SW6       30.33F                  
RENTON         MOSUNNY   55  45  68 S6        30.33S                  
SEATAC AIRPORT MOSUNNY   53  45  74 SW8       30.33S                  
JBLM-MCCHORD   MOSUNNY   54  50  87 SW5       30.33F                  
PUYALLUP       FAIR      55  48  76 VRB3      30.33F                  
BREMERTON      CLOUDY    50  47  89 SW9       30.32F                  
JBLM-FT LEWIS  MOSUNNY   53  51  91 S6        30.32F                  
TACOMA NARROWS MOSUNNY   52  47  83 S6        30.34F                  
$$
 
WAZ001-503-506-510-514-515-152000-
NORTH INTERIOR
  
CITY           SKY/WX    TMP DP  RH WIND       PRES   REMARKS
BELLINGHAM     LGT RAIN  51  47  86 S13       30.29S                  
FRIDAY HARBOR  CLOUDY    51  48  89 SE8       30.31S                  
EASTSOUND      CLOUDY    52  50  93 S14       30.28S                  
PORT ANGELES   CLOUDY    52  44  74 N3        30.30S                  
EDIZ HOOK      FAIR      50  46  86 CALM      30.30S                  
PORT TOWNSEND  CLOUDY    52  48  87 SE6       30.30S                  
NAS WHIDBEY    CLOUDY    55  48  77 SE9       30.35F                  
ARLINGTON      CLOUDY    54  48  82 S8        30.33S                  
BURLINGTON     CLOUDY    54  50  87 SE7       30.32S                  
$$
 
WAZ020-022-039-040-504-511-512-152000-
SOUTHWEST INTERIOR
  
CITY           SKY/WX    TMP DP  RH WIND       PRES   REMARKS
SHELTON        CLOUDY    53  47  79 SW12      30.31F                  
OLYMPIA        PTSUNNY   50  45  83 SW6       30.34F                  
CHEHALIS       FAIR      50  46  87 CALM      30.35F                  
KELSO          FOG       46  45  96 CALM      30.36F VSB 3/4          
VANCOUVER      PTSUNNY   49  45  86 CALM      30.35F                  
SCAPPOOSE, OR  CLOUDY    57  47  69 CALM      30.35F                  
PORTLAND, OR   CLOUDY    48  45  89 CALM      30.36S FOG              
$$
 
WAZ021-516-517-152000-
WASHINGTON COAST
  
CITY           SKY/WX    TMP DP  RH WIND       PRES   REMARKS
FORKS          CLOUDY    51  48  89 S6        30.32S                  
HOQUIAM        CLOUDY    52  49  89 SE3       30.34F FOG              
ASTORIA, OR    CLOUDY    48  47  96 N5        30.34F                  
$$
 
WAZ019-023-024-040-567>569-152000-
CASCADE MOUNTAINS AND COLUMBIA GORGE
  
CITY           SKY/WX    TMP DP  RH WIND       PRES   REMARKS
STAMPEDE PASS  NOT AVBL                                               
TROUTDALE, OR  CLOUDY    46  43  89 VRB3      30.36S                  
HOOD RIVER, OR CLOUDY    41  41 100 CALM      30.34F                  
THE DALLES, OR CLOUDY    44  40  85 CALM      30.35F                  
$$

WAZ026-027-041>044-520-521-152000-
EAST SLOPES
  
CITY           SKY/WX    TMP DP  RH WIND       PRES   REMARKS
OMAK           CLOUDY    33  30  88 SE5       30.33F                  
WENATCHEE      PTSUNNY   36  32  85 CALM      30.31F                  
ELLENSBURG     SUNNY     53  38  56 VRB3      30.28S                  
YAKIMA         SUNNY     41  32  70 CALM      30.32F HAZE             
SUNNYSIDE ARPT FOG       32  32 100 CALM      30.34  VSB 1/4          
YAKIMA TC      FAIR      41  34  75 CALM      30.29F                  
$$

WAZ028-034-035-152000-
COLUMBIA BASIN
  
CITY           SKY/WX    TMP DP  RH WIND       PRES   REMARKS
EPHRATA        MOSUNNY   40  32  73 NE3       30.31F                  
MOSES LAKE     MOSUNNY   38  30  73 CALM      30.33F                  
PASCO          SUNNY     41  33  73 VRB5      30.37F                  
RICHLAND ARPT  CLOUDY    38  34  86 CALM      30.37F FOG              
HERMISTON, OR  SUNNY     47  38  71 NW5       30.32F                  
$$

WAZ036>038-152000-
NORTHEAST WASHINGTON
  
CITY           SKY/WX    TMP DP  RH WIND       PRES   REMARKS
SPOKANE GEIGER FOG       36  34  92 NE3       30.29F VSB 1/4          
SPOKANE FELTS  CLOUDY    37  33  85 SW3       30.31F FOG              
FAIRCHILD AFB  FOG       37  37 100 S3        30.27F VSB 3/8          
COEURDALENE,ID PTSUNNY   40  37  89 N5        30.29F                  
DEER PARK      FOG       35  34  96 CALM      30.30F VSB 3/4          
$$

WAZ029>033-152000-
SOUTHEAST WASHINGTON
  
CITY           SKY/WX    TMP DP  RH WIND       PRES   REMARKS
PULLMAN        PTSUNNY   51  38  60 S7        30.30F                  
LEWISTON, ID   MOSUNNY   49  37  63 NW3       30.30F                  
WALLA WALLA    SUNNY     39  33  79 VRB3      30.31F HAZE             
PENDLETON, OR  SUNNY     51  39  63 S3        30.29F                  
$$